Regional Weather Roundup
Issued by NWS Upton, NY

Current Version | Previous Version | Text Only | Print | Product List | Glossary Off
Versions: 1 2 3 4 5 6 7 8 9 10 11 12 13 14 15 16 17 18 19 20 21 22 23 24 25 26 27
000 ASUS41 KOKX 201108 RWROKX REGIONAL WEATHER ROUNDUP NATIONAL WEATHER SERVICE NEW YORK NY 700 AM EDT SUN AUG 20 2017 NOTE: "FAIR" INDICATES FEW OR NO CLOUDS BELOW 12,000 FEET WITH NO SIGNIFICANT WEATHER AND/OR OBSTRUCTIONS TO VISIBILITY. NYZ071-072-176-178-NJZ106-104-201200- NEW YORK CITY METRO AREA CITY SKY/WX TMP DP RH WIND PRES REMARKS Central Park CLEAR 70 61 73 VRB5 30.04R Bronx Bot Gard N/A 68 59 73 NW2 30.03R LaGuardia APRT PTCLDY 71 63 75 NW13 30.00R Kennedy INTL PTCLDY 71 62 73 NW14 30.01R Breezy Point N/A 68 N/A N/A NW9G15 N/A Newark/Liberty PTCLDY 69 61 75 W13 30.01R Teterboro CLEAR 69 61 75 NW8 30.00R $$ NYZ177-179-078>081-201200- LONG ISLAND NEW YORK CITY SKY/WX TMP DP RH WIND PRES REMARKS Jones Beach N/A 70 N/A N/A NW12G17 N/A Matinecock PT N/A 70 N/A N/A W21 N/A Farmingdale CLEAR 69 61 75 W8 29.99R MacArthur/ISP PTCLDY 69 63 81 NW6 29.98R Shirley CLEAR 70 64 81 NW6 29.98R Mt Sinai Harb N/A 70 N/A N/A W6G12 N/A Westhampton CLEAR 68 62 81 NW5 29.98R East Hampton FAIR 71 64 79 NW5 29.96R Montauk N/A 72 65 78 NW8 29.96R $$ NYZ052-065-067-201200- HUDSON VALLEY CITY SKY/WX TMP DP RH WIND PRES REMARKS White Plains CLEAR 68 61 78 NW13 29.99R Larchmont Harb N/A 68 N/A N/A W16 N/A Croton On Huds N/A 70 N/A N/A NW14 N/A Newburgh CLEAR 63 63 100 W12 30.02R Montgomery CLEAR 63 60 90 SW5 30.02R Poughkeepsie CLEAR 63 60 90 CALM 29.99R Albany MOCLDY 66 60 81 SW7 29.99R $$ NJZ001-105-106-008-010-013-015-019>022-104-201200- NEW JERSEY CITY SKY/WX TMP DP RH WIND PRES REMARKS Newark/Liberty PTCLDY 69 61 75 W13 30.01R Teterboro CLEAR 69 61 75 NW8 30.00R Caldwell CLEAR 66 62 87 CALM 30.03R Somerville CLEAR 65 62 90 NW5 30.02R Linden FAIR 66 61 83 CALM 30.02R Perth Amboy N/A 66 N/A N/A W10 N/A Sussex CLEAR 64 61 90 VRB3 30.04R Andover N/A 61 59 93 CALM 30.05R Trenton CLEAR 65 61 87 NW6 30.04R Millville CLEAR 66 64 93 W7 30.05R Atlantic City CLEAR 67 61 81 NW7 30.04R Wrightstown CLEAR 65 61 85 NW6 30.01R Toms River CLEAR 64 61 90 SW5 30.04R Belmar CLEAR 65 61 87 W8 30.03R $$ PAZ047>061-062-071-201200- EASTERN PENNSYLVANIA CITY SKY/WX TMP DP RH WIND PRES REMARKS Philadelphia PTCLDY 69 60 73 NW7 30.05R Allentown CLEAR 62 59 90 SW6 30.05R Scranton PTCLDY 62 61 96 SW5 30.08R FOG $$ CTZ002-004>006-009-010-012-RIZ004-006-007-MAZ004-011-015-201200- SOUTHERN NEW ENGLAND IN CT CITY SKY/WX TMP DP RH WIND PRES REMARKS Bradley INTL PTCLDY 68 60 75 NW5 29.97R Hartford CLEAR 71 61 70 NW5 29.97R Danbury CLEAR 64 61 90 SW3 30.01R Wtrbury/Oxford CLEAR 64 61 90 NW3 30.00R Norwalk Harbor N/A 68 N/A N/A NW9 N/A Bridgeport CLEAR 69 61 75 NW8 29.97R Meriden CLEAR 67 61 81 NW6 29.97R New Haven CLEAR 70 62 76 NW6 29.97R Chester FAIR 68 63 83 NW9 29.97R Groton CLEAR 71 62 73 NW7 29.94R Wilimantic CLEAR 67 63 87 CALM 29.96R IN RI CITY SKY/WX TMP DP RH WIND PRES REMARKS Providence MOSUNNY 71 65 81 W6 29.93R Block Island CLEAR 70 66 87 W8 29.94R Westerly CLEAR 71 65 81 VRB5 29.94R IN MA CITY SKY/WX TMP DP RH WIND PRES REMARKS Boston MOSUNNY 73 63 70 W10 29.89R Worcester CLEAR 65 57 75 W15 29.95R Westfield CLEAR 67 61 81 CALM 29.97R Provincetown SUNNY 69 66 90 W8 29.90R Nantucket SUNNY 70 70 100 W7 29.91R FOG $$ ANZ330-335-338-340-345-350-353-355-201200- COASTAL MARINE OBSERVATIONS STATION/POSITION TIME SKY/WX TEMP WIND PRES VSBY WAVE AIR SEA DIR/SP/G HT/PER (UTC) (F) (DEG/KT/KT) (MB) (MI) (FT/S) NY HARB ENTRANCE 0950 72 75 300/ 17/ 19 1014.0 3/ 4 GREAT SOUTH BAY 1030 72 78 310/ 12/ 16 N/A 23 SSW MONTAUK P 0950 73 71 1013.4 3/ 7 15 E BARNEGAT LI 1030 76 N/A 4/ 4 HUDSON CANYON 0950 76 74 290/ 17/ 21 1013.6 3/ 6 KINGS POINT 1030 70 74 340/ 12/ 14 1015.3 EXECUTION ROCKS NOT AVBL WESTERN LI SOUND NOT AVBL CENTRAL LI SOUND NOT AVBL EASTERN LI SOUND NOT AVBL ROBBINS REEF 1024 300/ 16/ 19 1016.2 $$ >>>>>>>>>>>>>>>>>>>>>>>>>>>> KEY <<<<<<<<<<<<<<<<<<<<<<<<<<< > < > SKY/WX - Sky Condition/Present Weather < > TMP - Temperature in Fahrenheit < > DP - Dew Point in Fahrenheit < > RH - Relative Humidity in Percent < > WIND - Direction (from) and Speed in MPH < > PRES - Mean Sea Level Pressure (inches of Hg) < > WCI - Wind Chill Index < > VSB - VISIBILITY IN MILES < > HX - HEAT INDEX < > TC - TEMPERATURE IN CELSIUS < > VRB - VARIABLE WIND DIRECTION < > < >>>>>>>>>>>>>>>>>>>>>>>>>>>> KEY <<<<<<<<<<<<<<<<<<<<<<<<<<<

USA.gov is the U.S. government's official web portal to all federal, state and local government web resources and services.